Location: Feydey
(46.3431°N, 7.0106°E)
Time: 20:05:30
(UTC+00:00)

Cosmos 1328 - Pass Details

Date: 25 October 2021
Orbit: 529 x 552 km, 82.5° (Epoch: 03 December)

Event Time Altitude Azimuth Distance (km) Brightness Sun altitude
Rises 17:11:04 0° 353° (N) 2,738 7.4 -8.1°
Reaches altitude 10° 17:13:15 10° 355° (N) 1,840 6.5 -8.4°
Maximum altitude 17:17:17 71° 79° (E) 590 3.8 -9.1°
Drops below altitude 10° 17:21:18 10° 165° (SSE) 1,825 6.4 -9.8°
Sets 17:23:28 0° 167° (SSE) 2,713 7.3 -10.2°
